Regional Weather Roundup
Issued by NWS

Home | Current Version | Previous Version | Graphics & Text | Print | Product List | Glossary On
Versions: 1 2 3 4 5 6 7 8 9 10 11 12 13 14 15 16 17 18 19 20 21 22 23 24 25 26 27 28 29 30 31 32 33 34 35 36 37 38 39 40 41 42 43 44 45 46 47 48 49 50
000
ASUS45 KCYS 302310
RWRWY

WYOMING REGIONAL WEATHER ROUNDUP
NATIONAL WEATHER SERVICE CHEYENNE WY
500 PM MDT SAT AUG 30 2014

NOTE:  "FAIR" INDICATES FEW OR NO CLOUDS BELOW 12,000 FEET
WITH NO SIGNIFICANT WEATHER AND/OR OBSTRUCTIONS TO VISIBILITY.

WYZ001-310000-
YELLOWSTONE NATIONAL PARK

CITY           SKY/WX    TMP DP  RH WIND       PRES   REMARKS
LK YELLOWSTONE   N/A     45  42  89 CALM      30.08F
W YELLOWSTONE  NOT AVBL

$$
WYZ002>013-054>058-071-098>099-310000-
NORTHERN WYOMING

CITY           SKY/WX    TMP DP  RH WIND       PRES   REMARKS
JACKSON        CLOUDY    59  46  63 CALM      29.99F
CODY           CLOUDY    57  46  67 SW13G20   29.93S
GREYBULL       LGT RAIN  59  55  87 NW15G28   29.88R FOG
WORLAND        CLOUDY    59  52  77 N24G30    29.82R
SHERIDAN       CLOUDY    60  54  80 NW10      29.85S
BUFFALO        LGT RAIN  63  52  67 N24G39    29.86R
GILLETTE       CLOUDY    79  51  37 N22       29.74R
HULETT         FAIR      81  52  36 MISG      29.72
NEWCASTLE      FAIR      82  43  24 MISG      29.70

$$
WYZ014>020-022>026-101>103-310000-
CENTRAL WYOMING

CITY           SKY/WX    TMP DP  RH WIND       PRES   REMARKS
BIG PINEY      CLOUDY    68  35  29 W16G25    30.03F
PINEDALE       CLOUDY    64  32  29 SW13G18   30.04F
DUBOIS         MOCLDY    57  37  47 W12G24    29.99R THUNDER
LANDER         CLOUDY    71  34  25 SW18G26   29.87F
RIVERTON       CLOUDY    68  36  30 S17G31    29.87R
CASPER         CLOUDY    76  38  25 S29G38    29.86R
DOUGLAS        PTSUNNY   81  36  19 W20G32    29.82R

$$
WYZ021-027>030-104>119-310000-
SOUTHERN WYOMING

CITY           SKY/WX    TMP DP  RH WIND       PRES   REMARKS
EVANSTON       SUNNY     69  42  37 SW16      30.07F
KEMMERER       CLEAR    N/A N/A N/A SW20G29   30.06F
ROCK SPRINGS   CLOUDY    56  49  77 E6        30.07F
DIXON          FAIR      70  40  33 W17G37    30.09R
RAWLINS        CLOUDY    66  43  43 W32G41    30.05R
LARAMIE        CLOUDY    64  43  46 SW32G44   30.06F
CHEYENNE       TSTM      69  45  41 W30G47    30.02R
TORRINGTON     MOSUNNY   83  50  31 S13       29.76S
PINE BLUFFS    MOCLDY    73  43  33 N17G26    29.91R

$$


USA.gov is the U.S. government's official web portal to all federal, state and local government web resources and services.